[[{"header":{"parameterUnit":"m.s-1","parameterCategory":1,"la1":30.2991,"la2":30.254,"lo1":-89.0895,"lo2":-89.0444,"dy":0.0017,"dx":0.0017,"nx":28,"ny":28,"refTime":"2023-04-22T21:00:00:Z","depth":0,"parameterNumber":2,"parameterNumberName":"U-component_of_WINDS"},"data":[0,0,0,0,0,0,0,0,0,0,0,0,0,0,0,0,0,0,0,0,0,0,0,0,0,0,0,0,0,0,0,0,0,0,0,0,0,0,0,0,0,0,0,0,0,0,0,0,0,0,0,0,0,0,0,0,0,0,-5.7558,-5.7558,0,-5.7529,-5.7529,-5.7529,-5.7384,-5.7381,-5.7377,-5.7374,-5.7347,-5.7349,-5.7351,0,0,0,0,0,0,0,0,0,0,0,0,0,-5.7492,-5.7494,-5.7558,-5.7558,-5.7558,-5.7529,-5.7529,-5.7529,-5.7385,-5.7381,-5.7377,-5.7373,-5.7346,-5.7349,-5.7352,0,0,0,0,0,0,0,0,0,0,0,0,0,-5.7498,-5.7495,-5.7558,-5.7482,-5.7475,-5.7529,-5.7529,-5.7528,-5.7386,-5.7381,-5.7376,-5.7371,-5.7345,-5.7348,-5.7352,-5.7477,0,0,-5.7363,-5.7365,0,0,0,0,0,0,0,0,-5.7498,-5.7501,-5.7494,-5.7488,-5.748,-5.7455,-5.7495,-5.7511,-5.7387,-5.742,-5.7374,-5.7368,-5.7387,-5.7387,-5.7393,-5.7476,-5.7475,-5.7364,-5.7366,-5.7367,-5.7368,0,0,0,0,0,0,0,-5.7498,-5.7501,-5.7547,-5.7494,-5.7486,-5.7451,-5.7446,-5.7498,-5.7433,-5.7417,-5.7406,-5.7405,-5.7382,-5.739,-5.7391,-5.7475,-5.7363,-5.7367,-5.7369,-5.737,-5.7662,-5.7667,0,0,0,0,0,0,-5.7508,-5.7502,-5.7548,-5.7546,-5.7476,-5.7456,-5.7451,-5.7468,-5.7432,-5.7421,-5.7409,-5.7398,-5.7386,-5.7387,-5.739,-5.7534,-5.7367,-5.7371,-5.7373,-5.7656,-5.7663,-5.7669,0,0,0,0,0,0,-5.7507,-5.7513,-5.7549,-5.7521,-5.7523,-5.7463,-5.7484,-5.747,-5.7477,-5.7426,-5.7414,-5.7428,-5.7382,-5.7384,-5.7457,-5.7532,-5.7372,-5.7376,-5.765,-5.7658,-5.7666,-5.7826,0,0,0,0,0,0,-5.7505,-5.7514,-5.756,-5.7523,-5.7525,-5.7616,-5.7488,-5.7474,-5.7484,-5.7469,-5.7441,-5.7431,-5.7378,-5.7452,-5.7461,-5.7534,-5.7379,-5.7643,-5.7653,-5.7663,-5.7814,-5.7839,-5.786,0,0,0,0,0,-5.7504,-5.7606,-5.7563,-5.7569,-5.7581,-5.7621,-5.7622,-5.7558,-5.7491,-5.7537,-5.7504,-5.7432,-5.7523,-5.7461,-5.7469,-5.7545,-5.7637,-5.765,-5.7662,-5.7803,-5.7834,-5.7859,0,0,0,0,0,0,-5.7653,-5.76,-5.7551,-5.7644,-5.7638,-5.7596,-5.7652,-5.7592,-5.7605,-5.7591,-5.7512,-5.7507,-5.7592,-5.7575,-5.7508,-5.7665,-5.7568,-5.7583,-5.7672,-5.7701,-5.7723,-5.7725,-5.7382,0,0,0,0,0,-5.7697,-5.7732,-5.7684,-5.7771,-5.7771,-5.7713,-5.7728,-5.7679,-5.767,-5.7667,-5.7639,-5.7633,-5.766,-5.768,-5.7702,-5.7811,-5.7803,-5.7867,-5.7891,-5.791,-5.7923,-5.7981,-5.8009,-5.771,-5.7709,-5.7709,0,0,-5.7787,-5.7763,-5.779,-5.7801,-5.779,-5.783,-5.7711,-5.7758,-5.7787,-5.7674,-5.774,-5.7721,-5.7709,-5.7801,-5.784,-5.779,-5.8005,-5.7926,-5.7942,-5.7944,-5.7997,-5.8025,-5.8051,-5.7718,-5.7716,-5.7715,0,0,-5.7972,-5.7957,-5.8028,-5.8021,-5.8007,-5.7968,-5.7986,-5.7954,-5.7936,-5.8002,-5.7918,-5.7952,-5.8,-5.7996,-5.8,-5.8188,-5.8122,-5.8198,-5.8318,-5.8376,-5.8399,-5.842,-5.8487,-5.8512,-5.8211,-5.8212,-5.8212,0,-5.8086,-5.8142,-5.8073,-5.8126,-5.8134,-5.8034,-5.8106,-5.8102,-5.8097,-5.8105,-5.8049,-5.8109,-5.8094,-5.8184,-5.823,-5.8237,-5.8255,-5.82,-5.8402,-5.8421,-5.844,-5.8503,-5.8528,-5.8221,-5.822,-5.8219,-5.8218,0,-5.8284,-5.8324,-5.8384,-5.8381,-5.8396,-5.8459,-5.84,-5.8424,-5.8376,-5.8343,-5.8413,-5.8392,-5.8409,-5.8427,-5.838,-5.8512,-5.8481,-5.8415,-5.8316,-5.8479,-5.8537,-5.856,-5.8234,-5.8231,-5.8228,-5.8226,0,0,-5.8559,-5.8519,-5.8542,-5.854,-5.8519,-5.8549,-5.8609,-5.8625,-5.8647,-5.8648,-5.8696,-5.8741,-5.868,-5.8685,-5.8637,-5.8688,-5.8839,-5.8615,-5.8614,-5.8658,-5.8984,-5.9033,-5.9062,-5.8796,-5.8801,-5.8804,-5.8985,0,-5.8736,-5.8833,-5.8775,-5.8881,-5.8919,-5.8826,-5.8878,-5.8871,-5.8844,-5.8873,-5.8842,-5.8875,-5.8792,-5.8795,-5.8841,-5.8811,-5.8903,-5.8797,-5.8841,-5.8843,-5.8845,-5.9093,-5.9144,-5.9316,-5.9007,-5.9011,-5.9014,0,-5.8954,-5.8965,-5.9076,-5.9049,-5.9063,-5.911,-5.9121,-5.915,-5.9142,-5.9118,-5.9126,-5.9066,-5.9124,-5.9027,-5.9106,-5.9036,-5.9051,-5.9039,-5.9044,-5.9045,-5.8937,-5.91,-5.9369,-5.9395,-5.9049,-5.9046,-5.9043,0,-5.9144,-5.9187,-5.9258,-5.926,-5.923,-5.9266,-5.9256,-5.9242,-5.9257,-5.9268,-5.9276,-5.9294,-5.9304,-5.932,-5.9267,-5.9202,-5.9354,-5.9253,-5.9337,-5.9339,-5.9372,-5.937,-5.9647,-5.9383,-5.9383,-5.9383,-5.9382,0,-5.9347,-5.9419,-5.9343,-5.9388,-5.9466,-5.9399,-5.9478,-5.9458,-5.9448,-5.9487,-5.9409,-5.9448,-5.9377,-5.941,-5.9369,-5.9442,-5.9447,-5.943,-5.9418,-5.9436,-5.9439,-5.9444,-5.9431,-5.9389,-5.9388,-5.9386,-5.9385,0,-5.9571,-5.9524,-5.9596,-5.9563,-5.9557,-5.9616,-5.9588,-5.9629,-5.9597,-5.9649,-5.9657,-5.9608,-5.9642,-5.9592,-5.9621,-5.9594,-5.9694,-5.9664,-5.9697,-5.9688,-5.9775,-5.9767,-6.0063,-6.0099,-5.9814,-5.9817,-5.9819,0,-5.9703,-5.9756,-5.973,-5.9751,-5.9745,-5.978,-5.9794,-5.9732,-5.975,-5.9747,-5.9788,-5.9816,-5.9835,-5.9895,-5.9862,-5.9885,-5.9855,-5.9958,-5.9858,-5.9875,-5.9856,-5.9854,-5.9859,-5.9978,-5.9981,-5.9984,-5.9986,0,-5.9943,-5.9917,-5.9941,-5.9958,-5.9978,-5.9988,-5.9993,-6.0015,-5.9949,-5.9975,-6.0009,-6.0024,-6.0054,-6.0084,-6.0098,-6.0089,-6.0028,-6.0019,-6.0039,-6.0057,-6.0074,-6.0066,-5.9752,-6.0011,-6.0009,-6.0007,-6.0006,-6.0005,-6.0124,-6.0168,-6.0156,-6.0186,-6.0183,-6.019,-6.0227,-6.0201,-6.0228,-6.0248,-6.021,-6.0255,-6.0247,-6.0261,-6.0258,-6.0293,-6.0248,-6.0278,-6.0285,-6.0294,-6.0307,-6.007,-6.0296,-6.0295,-6.0294,-6.0293,-6.0293,0,-6.0359,-6.0348,-6.0377,-6.0386,-6.041,-6.0351,-6.0354,-6.0378,-6.0418,-6.0417,-6.0438,-6.0479,-6.0507,-6.0479,-6.0502,-6.0536,-6.0508,-6.0544,-6.054,-6.0539,-6.0346,-6.0325,-6.0566,-6.0566,-6.0566,-6.0566,-6.0566,-6.0566,-6.0484,-6.0555,-6.0529,-6.0598,-6.0586,-6.0629,-6.0636,-6.0643,-6.0641,-6.069,-6.0714,-6.0695,-6.0683,-6.0706,-6.073,-6.0721,-6.0733,-6.0779,-6.076,-6.058,-6.0553,-6.0527,-6.0508,-6.0782,-6.0783,-6.0951,-6.0952,-6.0953]},{"header":{"parameterUnit":"m.s-1","parameterCategory":1,"la1":30.2991,"la2":30.254,"lo1":-89.0895,"lo2":-89.0444,"dy":0.0017,"dx":0.0017,"nx":28,"ny":28,"refTime":"2023-04-22T21:00:00:Z","depth":0,"parameterNumber":3,"parameterNumberName":"V-component_of_WINDS"},"data":[0,0,0,0,0,0,0,0,0,0,0,0,0,0,0,0,0,0,0,0,0,0,0,0,0,0,0,0,0,0,0,0,0,0,0,0,0,0,0,0,0,0,0,0,0,0,0,0,0,0,0,0,0,0,0,0,0,0,0.9585,0.9585,0,0.9598,0.9598,0.9598,0.9637,0.9638,0.9639,0.964,0.9649,0.9648,0.9648,0,0,0,0,0,0,0,0,0,0,0,0,0,0.9593,0.9593,0.9585,0.9585,0.9586,0.9598,0.9598,0.9598,0.9637,0.9638,0.9639,0.964,0.9649,0.9648,0.9648,0,0,0,0,0,0,0,0,0,0,0,0,0,0.9596,0.9593,0.9585,0.9606,0.9609,0.9598,0.9598,0.9598,0.9637,0.9638,0.9639,0.964,0.9649,0.9649,0.9648,0.9616,0,0,0.9645,0.9645,0,0,0,0,0,0,0,0,0.9596,0.9596,0.9603,0.9605,0.9607,0.9617,0.9604,0.9604,0.9636,0.9626,0.964,0.9641,0.9637,0.9637,0.9637,0.9617,0.9617,0.9645,0.9645,0.9644,0.9644,0,0,0,0,0,0,0,0.9596,0.9595,0.959,0.9603,0.9606,0.9615,0.9617,0.9604,0.9624,0.9627,0.963,0.9631,0.9638,0.9637,0.9637,0.9617,0.9645,0.9644,0.9644,0.9643,0.9573,0.9572,0,0,0,0,0,0,0.9593,0.9595,0.959,0.959,0.9605,0.9614,0.9616,0.9613,0.9624,0.9627,0.963,0.9633,0.9638,0.9638,0.9638,0.9602,0.9644,0.9643,0.9643,0.9574,0.9573,0.9571,0,0,0,0,0,0,0.9593,0.9592,0.9589,0.9594,0.9594,0.9612,0.9608,0.9612,0.9611,0.9626,0.963,0.9625,0.9639,0.9639,0.9622,0.9603,0.9643,0.9642,0.9576,0.9574,0.9572,0.9529,0,0,0,0,0,0,0.9593,0.9592,0.958,0.9593,0.9594,0.9573,0.9607,0.9611,0.961,0.9614,0.9623,0.9626,0.964,0.9623,0.9621,0.9602,0.9642,0.9578,0.9575,0.9573,0.9533,0.9526,0.9521,0,0,0,0,0,0.9593,0.9567,0.9579,0.9578,0.958,0.9572,0.9572,0.9591,0.9608,0.9597,0.9607,0.9625,0.9605,0.9621,0.9619,0.96,0.9579,0.9576,0.9573,0.9535,0.9527,0.9521,0,0,0,0,0,0,0.9549,0.9569,0.9583,0.956,0.9564,0.9579,0.9564,0.9582,0.958,0.9583,0.9605,0.9607,0.9587,0.9592,0.9608,0.957,0.9595,0.9592,0.9567,0.956,0.9554,0.9553,0.9641,0,0,0,0,0,0.9538,0.9531,0.9548,0.9526,0.9528,0.9546,0.9543,0.9557,0.9562,0.9563,0.9572,0.9575,0.957,0.9566,0.9561,0.9534,0.9537,0.952,0.9514,0.9509,0.9505,0.9492,0.9485,0.9561,0.9561,0.9561,0,0,0.9512,0.9522,0.9516,0.9518,0.9522,0.9514,0.9547,0.9536,0.953,0.9561,0.9546,0.9553,0.9558,0.9536,0.9526,0.9539,0.9485,0.9505,0.9501,0.95,0.9488,0.9481,0.9474,0.9559,0.9559,0.956,0,0,0.9461,0.9468,0.9451,0.9456,0.9464,0.9477,0.9473,0.9485,0.9491,0.9476,0.95,0.9493,0.9483,0.9486,0.9486,0.9438,0.9455,0.9437,0.9405,0.9391,0.9385,0.938,0.9362,0.9356,0.9433,0.9433,0.9433,0,0.9428,0.9418,0.944,0.9429,0.9429,0.9459,0.9441,0.9445,0.945,0.9449,0.9464,0.9453,0.9459,0.9438,0.9426,0.9426,0.9421,0.9435,0.9384,0.9379,0.9375,0.9358,0.9352,0.943,0.9431,0.9431,0.9431,0,0.9377,0.9369,0.9354,0.936,0.9359,0.9344,0.9364,0.936,0.9375,0.9386,0.9371,0.9379,0.9377,0.9374,0.9387,0.9355,0.9363,0.9381,0.9406,0.9365,0.935,0.9344,0.9427,0.9428,0.9429,0.9429,0,0,0.9296,0.9317,0.9311,0.9314,0.9326,0.932,0.9308,0.9308,0.9303,0.9307,0.9296,0.9288,0.9306,0.9306,0.932,0.9309,0.927,0.9328,0.9329,0.9316,0.9235,0.922,0.9213,0.9283,0.9282,0.9281,0.9234,0,0.9248,0.9228,0.9249,0.9224,0.9217,0.9247,0.9236,0.9242,0.9252,0.9247,0.9259,0.9253,0.9276,0.9277,0.9266,0.9277,0.9254,0.9281,0.9272,0.9271,0.9268,0.9205,0.9189,0.9145,0.9229,0.9228,0.9227,0,0.9188,0.919,0.9165,0.918,0.9178,0.9167,0.9169,0.9165,0.9172,0.9181,0.9182,0.9201,0.9189,0.9215,0.9199,0.9217,0.9215,0.922,0.9219,0.9217,0.9245,0.9201,0.9131,0.9124,0.9218,0.9219,0.9219,0,0.9131,0.9128,0.9113,0.9115,0.9132,0.9124,0.913,0.9139,0.9138,0.914,0.9139,0.9139,0.9139,0.9138,0.9156,0.9174,0.9138,0.9165,0.9143,0.9143,0.9133,0.9133,0.9061,0.9134,0.9134,0.9134,0.9134,0,0.9074,0.9057,0.9088,0.9078,0.9061,0.9085,0.9067,0.9076,0.9084,0.9077,0.9103,0.9095,0.912,0.9115,0.9129,0.9113,0.9113,0.9119,0.9122,0.9116,0.9115,0.9113,0.9116,0.9132,0.9133,0.9133,0.9133,0,0.9006,0.9026,0.9012,0.903,0.9034,0.902,0.9035,0.9027,0.904,0.903,0.903,0.905,0.9045,0.9064,0.9062,0.9072,0.9048,0.9057,0.9046,0.9048,0.9025,0.9026,0.8948,0.8939,0.9019,0.9018,0.9017,0,0.8968,0.8956,0.8973,0.8971,0.8976,0.8972,0.8972,0.8996,0.8994,0.9003,0.8993,0.8992,0.8991,0.8982,0.8996,0.8995,0.9004,0.8977,0.9004,0.8998,0.9003,0.9003,0.9002,0.8971,0.897,0.8969,0.8968,0,0.8897,0.8908,0.8907,0.891,0.8909,0.8912,0.8916,0.8913,0.8939,0.8936,0.8932,0.8932,0.8932,0.8929,0.8931,0.8938,0.8957,0.896,0.8955,0.8947,0.894,0.8943,0.9029,0.8961,0.8962,0.8962,0.8963,0.8963,0.8842,0.8833,0.8845,0.8843,0.885,0.8854,0.8847,0.8861,0.8858,0.886,0.8875,0.8869,0.8878,0.8883,0.8887,0.8883,0.8895,0.8888,0.8886,0.8883,0.8879,0.8943,0.8883,0.8883,0.8884,0.8884,0.8884,0,0.8772,0.8782,0.878,0.8787,0.8785,0.8806,0.8813,0.881,0.8804,0.8812,0.8811,0.8808,0.8806,0.8821,0.8821,0.8814,0.8823,0.8813,0.8813,0.8814,0.8868,0.8872,0.8806,0.8806,0.8806,0.8806,0.8806,0.8806,0.8735,0.8722,0.8734,0.8724,0.8734,0.8729,0.8731,0.8735,0.8741,0.8736,0.8735,0.8746,0.8756,0.8757,0.8757,0.8761,0.8759,0.8746,0.8753,0.8803,0.881,0.8817,0.8821,0.8746,0.8746,0.87,0.87,0.8699]}]]